Location: Владивосток
(43.1151°N, 131.8856°E)
Time: 17:26:12
(UTC+10:00)

FENGYUN 1C DEB - Pass Details

Date: 25 May 2025
Orbit: 716 x 738 km, 98.8° (Epoch: 20 June)

Event Time Altitude Azimuth Distance (km) Brightness Sun altitude
Exits shadow 03:35:55 15° 269° (W) 1,895 ? -17.7°
Drops below altitude 10° 03:38:45 10° 305° (NW) 2,237 ? -17.3°
Sets 03:42:00 0° 328° (NNW) 3,160 ? -17.0°
